Location: Paris
(48.6709°N, 2.3750°E)
Time: 13:50:10
(UTC+02:00)

NOAA 18 - Pass Details

Date: 28 June 2022
Orbit: 839 x 860 km, 98.9° (Epoch: 11 August)

Event Time Altitude Azimuth Distance (km) Brightness Sun altitude
Exits shadow 23:33:16 12° 173° (S) 2,337 7.0 -11.5°
Maximum altitude 23:38:23 70° 257° (WSW) 911 5.4 -12.0°
Drops below altitude 10° 23:43:57 10° 341° (NNW) 2,503 9.1 -12.4°
Sets 23:46:21 0° 344° (NNW) 3,446 10.1 -12.6°
